Location: Bogis-Bossey
(46.3500°N, 6.1667°E)
Time: 17:46:52
(UTC+00:00)

NOSS 3-1 (A) - Pass Details

Date: 17 August 2022
Orbit: 700 x 1511 km, 63.4° (Epoch: 28 September)

Event Time Altitude Azimuth Distance (km) Brightness Sun altitude
Rises 19:10:43 0° 189° (S) 3,116 6.0 -5.5°
Reaches altitude 10° 19:13:06 10° 180° (S) 2,248 5.2 -5.8°
Maximum altitude 19:17:42 35° 115° (ESE) 1,282 3.7 -6.5°
Drops below altitude 10° 19:22:59 10° 52° (NE) 2,601 5.5 -7.4°
Sets 19:25:56 0° 44° (NE) 3,679 6.4 -7.8°
